C6596 ZZZZ-KMOB

Flight info

Callsign C6596
Flight time N/A
Altitude 5000
Route VFR OPR BFMCA
Aircraft AS65/L-V/N

Departure

Time N/A
Airport ZZZZ

Arrival

Time 2026-04-12 01:11
Airport Mobile Regional Airport (KMOB)
Time Latitude Longitude Altitude Speed Heading
2026-04-12 00:28 29.98241 -88.31448 991 ft 166 kts
2026-04-12 00:28 29.99309 -88.31408 1124 ft 138 kts
2026-04-12 00:28 30.00186 -88.31366 1134 ft 119 kts
2026-04-12 00:28 30.01030 -88.31329 1140 ft 123 kts
2026-04-12 00:29 30.01823 -88.31023 1151 ft 122 kts 38°
2026-04-12 00:29 30.02293 -88.30222 1155 ft 123 kts 76°
2026-04-12 00:29 30.02384 -88.29240 1158 ft 123 kts 90°
2026-04-12 00:29 30.02402 -88.28252 1159 ft 123 kts 91°
2026-04-12 00:30 30.02196 -88.27314 1159 ft 122 kts 124°
2026-04-12 00:30 30.00776 -88.26636 1043 ft 134 kts 187°
2026-04-12 00:30 29.99576 -88.26681 845 ft 149 kts 184°
2026-04-12 00:30 29.98546 -88.26694 780 ft 148 kts 183°
2026-04-12 00:31 29.97512 -88.26704 755 ft 149 kts 183°
2026-04-12 00:31 29.96479 -88.26590 740 ft 151 kts 166°
2026-04-12 00:31 29.95575 -88.25987 739 ft 151 kts 143°
2026-04-12 00:31 29.94804 -88.25193 464 ft 149 kts 140°
2026-04-12 00:32 29.94101 -88.24310 311 ft 151 kts 125°
2026-04-12 00:32 29.93692 -88.23203 249 ft 150 kts 110°
2026-04-12 00:32 29.93387 -88.22053 224 ft 150 kts 109°
2026-04-12 00:32 29.93096 -88.20900 215 ft 150 kts 108°
2026-04-12 00:33 29.92809 -88.19747 206 ft 150 kts 107°
2026-04-12 00:33 29.92723 -88.18560 217 ft 141 kts 96°
2026-04-12 00:33 29.92592 -88.17554 219 ft 114 kts 98°
2026-04-12 00:33 29.92460 -88.16736 215 ft 95 kts 96°
2026-04-12 00:34 29.92500 -88.16029 212 ft 87 kts 68°
2026-04-12 00:34 29.92916 -88.15589 209 ft 80 kts 20°
2026-04-12 00:34 29.93436 -88.15646 211 ft 73 kts 337°
2026-04-12 00:34 29.93862 -88.15896 237 ft 64 kts 332°
2026-04-12 00:35 29.94194 -88.16159 230 ft 55 kts 308°
2026-04-12 00:35 29.94253 -88.16558 226 ft 49 kts 266°
2026-04-12 00:35 29.94182 -88.16895 223 ft 38 kts 264°
2026-04-12 00:35 29.94113 -88.17145 219 ft 28 kts 268°
2026-04-12 00:36 29.94058 -88.17364 215 ft 41 kts 242°
2026-04-12 00:36 29.93953 -88.17833 205 ft 82 kts 249°
2026-04-12 00:36 29.93420 -88.18366 194 ft 124 kts 207°
2026-04-12 00:36 29.92531 -88.18469 232 ft 128 kts 173°
2026-04-12 00:37 29.91924 -88.18003 233 ft 97 kts 98°
2026-04-12 00:37 29.92303 -88.17488 220 ft 88 kts 50°
2026-04-12 00:37 29.92632 -88.16920 237 ft 80 kts 55°
2026-04-12 00:37 29.92928 -88.16429 231 ft 65 kts 10°
2026-04-12 00:38 29.93158 -88.16121 224 ft 35 kts 268°
2026-04-12 00:38 29.93205 -88.16102 203 ft 21 kts 271°
2026-04-12 00:38 29.93215 -88.16300 214 ft 25 kts 278°
2026-04-12 00:38 29.93253 -88.16498 210 ft 25 kts 278°
2026-04-12 00:39 29.93304 -88.16752 210 ft 47 kts 283°
2026-04-12 00:39 29.93352 -88.17226 232 ft 59 kts 277°
2026-04-12 00:39 29.93331 -88.17570 217 ft 28 kts 230°
2026-04-12 00:39 29.93268 -88.17631 218 ft 1 kts 226°
2026-04-12 00:40 29.93206 -88.17602 223 ft 26 kts 221°
2026-04-12 00:40 29.93125 -88.17610 216 ft 4 kts 223°
2026-04-12 00:40 29.93143 -88.17611 237 ft 3 kts 224°
2026-04-12 00:40 29.93134 -88.17615 275 ft 5 kts 223°
2026-04-12 00:41 29.93118 -88.17630 283 ft 1 kts 223°
2026-04-12 00:41 29.93120 -88.17628 253 ft 0 kts 222°
2026-04-12 00:41 29.93119 -88.17628 221 ft 1 kts 222°
2026-04-12 00:42 29.93120 -88.17628 219 ft 0 kts 223°
2026-04-12 00:42 29.93118 -88.17627 214 ft 0 kts 222°
2026-04-12 00:42 29.93118 -88.17626 211 ft 1 kts 222°
2026-04-12 00:43 29.93121 -88.17630 219 ft 1 kts 224°
2026-04-12 00:43 29.93121 -88.17629 218 ft 0 kts 223°
2026-04-12 00:43 29.93117 -88.17627 192 ft 3 kts 223°
2026-04-12 00:43 29.93115 -88.17623 201 ft 1 kts 223°
2026-04-12 00:44 29.93121 -88.17629 226 ft 0 kts 223°
2026-04-12 00:44 29.93120 -88.17627 221 ft 0 kts 223°
2026-04-12 00:44 29.93117 -88.17625 213 ft 1 kts 224°
2026-04-12 00:44 29.93119 -88.17626 213 ft 0 kts 223°
2026-04-12 00:45 29.93116 -88.17626 199 ft 2 kts 224°
2026-04-12 00:45 29.93116 -88.17625 207 ft 0 kts 224°
2026-04-12 00:45 29.93118 -88.17627 211 ft 0 kts 224°
2026-04-12 00:45 29.93118 -88.17626 210 ft 0 kts 223°
2026-04-12 00:46 29.93118 -88.17625 211 ft 0 kts 224°
2026-04-12 00:46 29.93117 -88.17625 211 ft 1 kts 223°
2026-04-12 00:46 29.93119 -88.17627 217 ft 1 kts 224°
2026-04-12 00:46 29.93122 -88.17630 222 ft 0 kts 225°
2026-04-12 00:47 29.93122 -88.17628 219 ft 1 kts 224°
2026-04-12 00:47 29.93121 -88.17628 221 ft 0 kts 224°
2026-04-12 00:47 29.93120 -88.17627 219 ft 1 kts 224°
2026-04-12 00:47 29.93121 -88.17627 219 ft 0 kts 224°
2026-04-12 00:48 29.93117 -88.17624 225 ft 1 kts 225°
2026-04-12 00:48 29.93118 -88.17626 265 ft 1 kts 225°
2026-04-12 00:49 29.93116 -88.17623 302 ft 0 kts 225°
2026-04-12 00:49 29.93118 -88.17626 316 ft 0 kts 226°
2026-04-12 00:50 29.93116 -88.17625 323 ft 0 kts 226°
2026-04-12 00:50 29.93116 -88.17624 330 ft 0 kts 226°
2026-04-12 00:50 29.93117 -88.17626 336 ft 0 kts 226°
2026-04-12 00:50 29.93118 -88.17626 328 ft 1 kts 224°
2026-04-12 00:51 29.93117 -88.17627 299 ft 0 kts 222°
2026-04-12 00:51 29.93118 -88.17625 271 ft 0 kts 223°
2026-04-12 00:51 29.93120 -88.17627 265 ft 0 kts 222°
2026-04-12 00:51 29.93118 -88.17626 254 ft 0 kts 223°
2026-04-12 00:52 29.93118 -88.17627 248 ft 0 kts 223°
2026-04-12 00:52 29.93119 -88.17627 246 ft 0 kts 223°
2026-04-12 00:52 29.93118 -88.17626 245 ft 0 kts 223°
2026-04-12 00:52 29.93119 -88.17627 247 ft 0 kts 223°
2026-04-12 00:53 29.93104 -88.17630 245 ft 9 kts 232°
2026-04-12 00:53 29.93256 -88.18028 129 ft 111 kts 303°
2026-04-12 00:53 29.93766 -88.18531 231 ft 94 kts 315°
2026-04-12 00:53 29.94208 -88.19230 214 ft 127 kts 315°
2026-04-12 00:54 29.95065 -88.19757 254 ft 154 kts 345°
2026-04-12 00:54 29.96177 -88.19863 346 ft 166 kts
2026-04-12 00:54 29.97337 -88.19833 532 ft 167 kts
2026-04-12 00:54 29.98468 -88.19589 636 ft 167 kts 22°
2026-04-12 00:55 29.99509 -88.18989 667 ft 168 kts 29°
2026-04-12 00:55 30.00636 -88.18641 687 ft 168 kts
2026-04-12 00:55 30.01787 -88.18638 715 ft 159 kts 360°
2026-04-12 00:55 30.02789 -88.18684 712 ft 134 kts 359°
2026-04-12 00:56 30.03754 -88.18794 672 ft 150 kts 352°
2026-04-12 00:56 30.04846 -88.19001 685 ft 165 kts 352°
2026-04-12 00:56 30.05960 -88.19213 700 ft 162 kts 352°
2026-04-12 00:56 30.07075 -88.19423 701 ft 162 kts 352°
2026-04-12 00:57 30.08189 -88.19652 696 ft 163 kts 348°
2026-04-12 00:57 30.09295 -88.19906 704 ft 163 kts 355°
2026-04-12 00:57 30.10421 -88.20018 733 ft 159 kts 356°
2026-04-12 00:57 30.11430 -88.20156 737 ft 131 kts 354°
2026-04-12 00:58 30.12270 -88.20280 673 ft 120 kts 355°
2026-04-12 00:58 30.13162 -88.20385 657 ft 136 kts 355°
2026-04-12 00:58 30.14097 -88.20498 676 ft 134 kts 355°
2026-04-12 00:58 30.15026 -88.20637 679 ft 135 kts 353°
2026-04-12 00:59 30.15960 -88.20768 697 ft 135 kts 355°
2026-04-12 00:59 30.16889 -88.20882 721 ft 134 kts 354°
2026-04-12 00:59 30.17813 -88.21002 719 ft 134 kts 356°
2026-04-12 00:59 30.18750 -88.21134 711 ft 140 kts 353°
2026-04-12 01:00 30.19717 -88.21247 715 ft 139 kts 357°
2026-04-12 01:00 30.20695 -88.21340 704 ft 141 kts 356°
2026-04-12 01:00 30.21659 -88.21453 709 ft 135 kts 355°
2026-04-12 01:00 30.22592 -88.21567 693 ft 135 kts 355°
2026-04-12 01:01 30.23526 -88.21684 694 ft 135 kts 355°
2026-04-12 01:01 30.24461 -88.21800 697 ft 135 kts 356°
2026-04-12 01:01 30.25397 -88.21881 702 ft 133 kts 357°
2026-04-12 01:01 30.26314 -88.21968 700 ft 132 kts 356°
2026-04-12 01:02 30.27218 -88.22061 702 ft 132 kts 356°
2026-04-12 01:02 30.28137 -88.22169 701 ft 133 kts 354°
2026-04-12 01:02 30.29058 -88.22290 699 ft 133 kts 354°
2026-04-12 01:02 30.29980 -88.22398 694 ft 135 kts 356°
2026-04-12 01:03 30.30922 -88.22495 697 ft 135 kts 356°
2026-04-12 01:03 30.31857 -88.22630 701 ft 136 kts 354°
2026-04-12 01:03 30.32810 -88.22760 699 ft 140 kts 355°
2026-04-12 01:03 30.33733 -88.22869 711 ft 122 kts 358°
2026-04-12 01:04 30.34560 -88.22943 683 ft 124 kts 356°
2026-04-12 01:04 30.35492 -88.23047 714 ft 142 kts 354°
2026-04-12 01:04 30.36462 -88.23187 743 ft 134 kts 354°
2026-04-12 01:04 30.37388 -88.23301 704 ft 135 kts 355°
2026-04-12 01:05 30.38318 -88.23416 714 ft 129 kts 355°
2026-04-12 01:05 30.39204 -88.23515 683 ft 130 kts 355°
2026-04-12 01:05 30.40111 -88.23617 687 ft 134 kts 356°
2026-04-12 01:05 30.41031 -88.23718 702 ft 131 kts 355°
2026-04-12 01:06 30.41939 -88.23828 697 ft 131 kts 356°
2026-04-12 01:06 30.42863 -88.23927 697 ft 138 kts 356°
2026-04-12 01:06 30.43812 -88.24023 706 ft 136 kts 357°
2026-04-12 01:06 30.44762 -88.24114 713 ft 137 kts 356°
2026-04-12 01:07 30.45687 -88.24183 710 ft 132 kts 358°
2026-04-12 01:07 30.46617 -88.24291 698 ft 139 kts 356°
2026-04-12 01:07 30.47575 -88.24385 721 ft 134 kts 356°
2026-04-12 01:08 30.49433 -88.24535 707 ft 133 kts 356°
2026-04-12 01:08 30.50347 -88.24653 702 ft 132 kts 354°
2026-04-12 01:08 30.51260 -88.24782 699 ft 132 kts 355°
2026-04-12 01:08 30.52179 -88.24871 700 ft 132 kts 356°
2026-04-12 01:09 30.53091 -88.24980 702 ft 132 kts 355°
2026-04-12 01:09 30.54005 -88.25094 699 ft 132 kts 355°
2026-04-12 01:09 30.54918 -88.25238 699 ft 133 kts 353°
2026-04-12 01:09 30.55825 -88.25333 704 ft 131 kts 358°
2026-04-12 01:10 30.56735 -88.25306 694 ft 131 kts
2026-04-12 01:10 30.57633 -88.25270 683 ft 129 kts
2026-04-12 01:10 30.58533 -88.25240 669 ft 131 kts
2026-04-12 01:10 30.59312 -88.24799 680 ft 118 kts 40°
2026-04-12 01:11 30.59990 -88.24233 648 ft 128 kts 33°
2026-04-12 01:11 30.60753 -88.23701 664 ft 126 kts 32°
2026-04-12 01:11 30.61510 -88.23180 660 ft 127 kts 32°
2026-04-12 01:11 30.70220 -88.25340 625 ft 13 kts 131°
2026-04-12 01:12 30.70207 -88.25167 911 ft 69 kts 107°
2026-04-12 01:12 30.69613 -88.24444 714 ft 57 kts 146°
2026-04-12 01:12 30.69508 -88.24363 689 ft 8 kts 142°
2026-04-12 01:12 30.69438 -88.24317 507 ft 40 kts 137°
2026-04-12 01:13 30.69543 -88.23782 427 ft 74 kts 72°
2026-04-12 01:13 30.69281 -88.23388 697 ft 61 kts 183°
2026-04-12 01:13 30.69178 -88.23726 743 ft 55 kts 308°
2026-04-12 01:13 30.69354 -88.23968 548 ft 25 kts 303°
2026-04-12 01:14 30.69437 -88.24107 452 ft 19 kts 302°
2026-04-12 01:14 30.69409 -88.24262 355 ft 10 kts 232°
2026-04-12 01:14 30.69405 -88.24277 246 ft 2 kts 231°
2026-04-12 01:14 30.69403 -88.24284 221 ft 0 kts 236°
2026-04-12 01:15 30.69403 -88.24285 221 ft 0 kts 234°
2026-04-12 01:15 30.69381 -88.24318 219 ft 1 kts 182°
2026-04-12 01:15 30.69380 -88.24312 218 ft 0 kts 38°
2026-04-12 01:17 30.69374 -88.24336 218 ft 12 kts 262°
2026-04-12 01:17 30.69378 -88.24376 219 ft 8 kts 312°
2026-04-12 01:17 30.69415 -88.24379 220 ft 4 kts 38°
2026-04-12 01:18 30.69423 -88.24363 219 ft 5 kts 108°
2026-04-12 01:18 30.69410 -88.24358 222 ft 8 kts 147°
2026-04-12 01:18 30.69387 -88.24344 219 ft 5 kts 19°
2026-04-12 01:19 30.69444 -88.24321 220 ft 6 kts 93°
2026-04-12 01:19 30.69453 -88.24277 221 ft 0 kts 83°
2026-04-12 01:19 30.69455 -88.24198 225 ft 11 kts 159°
2026-04-12 01:19 30.69445 -88.24202 224 ft 5 kts 167°
2026-04-12 01:20 30.69445 -88.24203 224 ft 0 kts 176°
2026-04-12 01:20 30.69443 -88.24203 224 ft 2 kts 174°
2026-04-12 01:20 30.69437 -88.24204 223 ft 0 kts 177°
2026-04-12 01:20 30.69437 -88.24203 223 ft 0 kts 176°
2026-04-12 01:21 30.69438 -88.24203 221 ft 0 kts 176°
2026-04-12 01:21 30.69437 -88.24204 221 ft 0 kts 175°
2026-04-12 01:22 30.69437 -88.24203 221 ft 0 kts 175°
2026-04-12 01:23 30.69437 -88.24204 221 ft 0 kts 176°